Weather in Biltoy-Yurt

Russia / Chechen Republic     43°17′09″N   46°19′01″E
temp.,
°C
wind,
m/s
gust,
m/s
humid.,
%
clouds,
%
prec.,
mm/h
press.,
hPa
HPBL,
m
23 september, thu
thu2300:00+16nnw2486100 0.5 1011397
03:00+14wnw3596100 6.4 1012361
06:00+14wnw2494100 2.1 1012329
09:00+15wnw238584 2.4 1012486
12:00+18nw3370100 0.1 10101020
15:00+16n3481100 0.3 1010607
18:00+15n1388100 0.1 1010328
21:00+14nw1294100 1.3 1010234
24 september, fri
fri2400:00+14nnw2397100 1.9 1009274
03:00+13n1297100 2.5 1008229
06:00+13wnw2396100 0.8 1009251
09:00+13w4893100 1.9 1011633
12:00+14wnw578489 0.7 1012789
15:00+14wnw5782100 1.0 1013823
18:00+12wsw3792100 1.3 1015464
21:00+12w2290100 1.3 101571
25 september, sat
sat2500:00+11wsw229228 0.0 101515
03:00+11s118797 0.0 101510
06:00+11ese118619 0.0 101410
09:00+16ene46645 0.0 1013799
12:00+20e6545100 0.0 10101248
15:00+21ne33479 0.0 10111049
18:00+15nne12697 0.0 101417
21:00+13w61076100 0.5 1019962
26 september, sun
sun2600:00+12ssw3586100 1.1 1020202
03:00+12sw3878100 1.3 1020255
06:00+13sw4874100 0.0 1021281
09:00+14sw4762100 0.0 1021890
12:00+19wnw564455 0.0 10201794
15:00+19wnw454265 0.0 10191599
18:00+15nnw11598 0.0 101911
21:00+13s33662 0.0 101838
27 september, mon
mon2700:00+13ssw346128 0.0 101764
03:00+14ssw345963 0.0 101658
06:00+16ssw345695 0.0 101559
09:00+17wnw2654100 0.0 1016338
12:00+20wnw445053 0.0 10161440
15:00+18nnw4759100 0.1 1016844
18:00+16w1266100 0.1 101850
21:00+15wsw2473100 0.4 1019126